TimePST,TemperatureF,Dew PointF,Humidity,Sea Level PressureIn,VisibilityMPH,Wind Direction,Wind SpeedMPH,Gust SpeedMPH,PrecipitationIn,Events,Conditions,WindDirDegrees,DateUTC
12:53 AM,37.0,32.0,82,29.82,7.0,SW,13.8,21.9,0.03,Rain,Light Rain,220,2012-12-24 08:53:00
1:17 AM,35.6,33.8,93,29.81,5.0,SW,16.1,26.5,0.03,Rain,Rain,230,2012-12-24 09:17:00
1:46 AM,37.4,33.8,87,29.82,10.0,SSW,9.2,-,0.05,Rain,Light Rain,210,2012-12-24 09:46:00
1:53 AM,37.0,33.1,86,29.84,10.0,SW,10.4,19.6,0.05,Rain,Light Rain,220,2012-12-24 09:53:00
2:53 AM,37.0,32.0,82,29.86,10.0,WSW,15.0,27.6,0.02,Rain,Light Rain,240,2012-12-24 10:53:00
4:30 AM,39.2,30.2,70,29.87,10.0,SW,17.3,23.0,0.00,,Overcast,220,2012-12-24 12:30:00
4:53 AM,37.9,30.0,73,29.91,10.0,WSW,16.1,23.0,0.00,,Overcast,240,2012-12-24 12:53:00
5:53 AM,37.9,30.0,73,29.94,10.0,SW,11.5,-,N/A,,Overcast,230,2012-12-24 13:53:00
6:53 AM,37.9,30.0,73,29.96,10.0,SW,11.5,-,N/A,,Overcast,220,2012-12-24 14:53:00
7:53 AM,37.9,30.0,73,29.99,10.0,SW,9.2,-,N/A,,Overcast,220,2012-12-24 15:53:00
8:53 AM,37.9,30.9,76,30.04,10.0,SSW,8.1,-,N/A,,Overcast,210,2012-12-24 16:53:00
9:53 AM,39.0,32.0,76,30.08,10.0,SSW,10.4,-,N/A,,Overcast,210,2012-12-24 17:53:00
10:53 AM,39.0,32.0,76,30.09,10.0,SSW,11.5,-,N/A,,Overcast,210,2012-12-24 18:53:00
11:53 AM,41.0,33.1,73,30.10,10.0,SSW,6.9,-,N/A,,Overcast,200,2012-12-24 19:53:00
12:53 PM,42.1,33.1,70,30.11,10.0,South,10.4,-,N/A,,Overcast,190,2012-12-24 20:53:00
1:53 PM,43.0,34.0,71,30.12,10.0,WSW,9.2,-,N/A,,Overcast,240,2012-12-24 21:53:00
2:53 PM,44.1,34.0,68,30.14,10.0,WSW,15.0,-,N/A,,Overcast,250,2012-12-24 22:53:00
3:53 PM,41.0,34.0,76,30.17,10.0,SSW,8.1,-,N/A,,Overcast,200,2012-12-24 23:53:00
4:53 PM,39.9,33.1,77,30.19,10.0,South,8.1,-,N/A,,Overcast,180,2012-12-25 00:53:00
5:53 PM,39.9,32.0,73,30.19,10.0,South,11.5,-,N/A,,Overcast,180,2012-12-25 01:53:00
6:53 PM,39.9,30.9,70,30.20,10.0,South,12.7,-,N/A,,Overcast,190,2012-12-25 02:53:00
7:53 PM,37.0,28.9,73,30.19,10.0,South,6.9,-,N/A,,Scattered Clouds,180,2012-12-25 03:53:00
8:53 PM,37.0,28.0,70,30.19,10.0,South,9.2,-,N/A,,Clear,170,2012-12-25 04:53:00
9:53 PM,34.0,27.0,75,30.19,10.0,Calm,Calm,-,N/A,,Clear,0,2012-12-25 05:53:00
10:53 PM,33.1,28.0,82,30.19,10.0,Calm,Calm,-,N/A,,Clear,0,2012-12-25 06:53:00
11:53 PM,33.1,26.1,75,30.18,10.0,ESE,4.6,-,N/A,,Clear,110,2012-12-25 07:53:00